Showing default

GGSE 4, 2828

Orbit data source: Space-Track

GGSE 4, 2828 is an American payload satellite in LEO that was launched on Wed, 31 May 1967 UTC via a THOR SLV-2 AGENA D launch vehicle from the Air Force Western Test Range (AFWTR). Payload-class satellites include a variety of spacecraft equipped with specific instruments for various scientific and technological missions. These include communications satellites like Starlink; space stations such as the ISS; scientific satellites like the Hubble; Earth observation satellites from companies like Planet Labs, Umbra, and HawkEye 360; GPS; miniature CubeSats for education and research; and military/defense satellites.

Loading next visibility...
Identifier
2828, 1967-053C
Orbit
LEO
Country
Flag of USUS
Related business
Manufacturer
NRL
Mission
Spacecraft
Bus & Motor
NRL MULTI, Unknown motor
Mass
85 kg wet, 85 kg dry
Launch date (UTC)
1967-05-31 (59 years ago)
Launch vehicle
THOR SLV-2 AGENA D
Launch site
Air Force Western Test Range (AFWTR)
Object type
Payload
Rocket body
Debris
Shape & HBR
Unknown
Radar Cross Section
Medium (>0.1 m² and <1 m²)

Expand to show TLE details & history
Last TLE update: 2 days ago

TLE from 2 days ago
0 GGSE 4
1 02828U 67053C   26173.02253310  .00000023  00000-0  54037-4 0  9994
2 02828  69.9717  52.5459 0007478 182.1354 177.9722 13.98088470  8833
Epoch: 2026-06-22T00:32Z
TLE epoch observation values (Epoch: 2026-06-22T00:32:26.859Z)
Latitude
-0.00004°
Longitude
134.21956°
Altitude
908.175 km
Speed
7.395 km/s
True Right ascension
03h 30m 11s
True Declination
0° 00' 00"
Sunlit
Object was in daylight at epoch
Visualization orbit readout
Latitude
Unknown
Longitude
Unknown
Altitude
Unknown
Speed
Unknown
Apparent Right ascension
Unknown
Apparent Declination
Unknown
Sunlit
N/A
Visualization observer readout
Local Sidereal Time
02:24:05
Azimuth
Unknown
Elevation
Unknown
Doppler factor
Unknown
Orbital elements
Apogee altitude
903.907 km
Perigee altitude
893.025 km
Semi-major axis
7,276.603 km
Eccentricity
0.00075
Inclination
69.9717°
RAAN
52.5459°
Arg. of periapsis
182.1354°
True anomaly
177.97523°
Mean anomaly
177.9722°
Eccentric anomaly
177.97371°
Mean motion
3.49663 °/min
Orbital period
102.96 mins
BSTAR
0.000054037
Loading maneuver chart data...
Computing Atmospheric mass density...
Loading historical data...
Loading historical data...
Loading historical data...
Loading historical data...
Loading historical data...
Loading historical data...
Loading historical data...

Documentation

Showing up to 5 results
|